COSMOS 970 DEB, 14511

Orbit data source: Space-Track

COSMOS 970 DEB, 14511 is space debris in LEO originally from a launch on Wed, 21 Dec 1977 UTC launched from the Tyuratam Missile And Space Complex (TTMTR). Debris objects in space refer to the collection of defunct objects orbiting the Earth. Examples of debris include non-operational satellites, rocket bodies, and fragments generated from explosions, collisions, or faulty payload assembly.

Loading next visibility...
Identifier
14511, 1977-121BJ
Orbit
LEO
Country
Flag of CISCIS
Related business
Manufacturer
Unknown
Mission
Spacecraft
Bus & Motor
Unknown
Mass
Unknown
Launch date (UTC)
1977-12-21 (48 years ago)
Launch vehicle
Unknown
Launch site
Tyuratam Missile And Space Complex (TTMTR)
Object type
Payload
Rocket body
Debris
Shape & HBR
Unknown shape, 0.1 m
Radar Cross Section
Medium (>0.1 m² and <1 m²)

Expand to show TLE details & history
Last TLE update: 18 hours ago

TLE from 18 hours ago
0 COSMOS 970 DEB
1 14511U 77121BJ  26171.22488432  .00000126  00000-0  46250-3 0  9999
2 14511  64.6795 101.8931 0138096 144.3009   3.9197 13.22419491108927
Epoch: 2026-06-20T05:23Z
TLE epoch observation values (Epoch: 2026-06-20T05:23:50.005Z)
Latitude
28.39291°
Longitude
-82.24761°
Altitude
1,073.882 km
Speed
7.368 km/s
True Right ascension
17h 48m 36s
True Declination
28° 15' 19"
Sunlit
Object was in full shadow at epoch
Visualization orbit readout
Latitude
Unknown
Longitude
Unknown
Altitude
Unknown
Speed
Unknown
Apparent Right ascension
Unknown
Apparent Declination
Unknown
Sunlit
N/A
Visualization observer readout
Local Sidereal Time
10:12:24
Azimuth
Unknown
Elevation
Unknown
Doppler factor
Unknown
Orbital elements
Apogee altitude
1,278.476 km
Perigee altitude
1,069.887 km
Semi-major axis
7,552.318 km
Eccentricity
0.01381
Inclination
64.6795°
RAAN
101.8931°
Arg. of periapsis
144.3009°
True anomaly
4.02977°
Mean anomaly
3.9197°
Eccentric anomaly
3.97454°
Mean motion
3.30691 °/min
Orbital period
108.86 mins
BSTAR
0.0004625
Loading maneuver chart data...
Computing Atmospheric mass density...
Loading historical data...
Loading historical data...
Loading historical data...
Loading historical data...
Loading historical data...
Loading historical data...
Loading historical data...

Documentation

Showing up to 5 results
|